MZBZ

Philip S W Goldson International Airport

Airport
ICAO code
MZBZ
IATA Code
BZE
Summary
ICAO Region
CARSAM
ICAO Territory
Location

Ladyville, Belize District

Serving
Belize City
Elevation
16 ft
Coordinates
17° 32' 23" N , 88° 18' 20" W
KCC
Airport WX
Tropical Revolving Storm
Metar
MZBZ 121300Z 29003KT 9999 FEW018 BKN045 23/21 A3009 Q1019 NOSIG

Philip S. W. Goldson International Airport is an airport that serves Belize's largest city, Belize City.

Climatology

Tropical monsoon climate (Köppen climate classification Am)

Belize is vulnerable to Hurricanes from July to October.

Runways

Designator Length Width Surface Rops
7/25 2164 46 ASP Yes/Yes

Airport map

Aerial View

SKYbrary Partners:

Safety knowledge contributed by: